Ravenna, OH

8:12 AM EST on February 14, 2016 (GMT -0500)
Ravenna

Weather History for KPOV - July, 2013

Change the Weather History Date:

Saturday, July 13, 2013

  Actual Average (KCAK) Record (KCAK)
Temperature  
Mean Temperature 71 °F 72 °F  
Max Temperature 83 °F 82 °F 99 °F (1936)
Min Temperature 59 °F 62 °F 43 °F (1904)
Degree Days  
Heating Degree Days 0 0  
Month to date heating degree days 0  
Since 1 June heating degree days 49  
Since 1 July heating degree days 0  
Cooling Degree Days 6 7  
Month to date cooling degree days 91  
Year to date cooling degree days 268  
Since 1 June cooling degree days 226  
Growing Degree Days 21 (Base 50)    
Moisture  
Dew Point 64 °F    
Average Humidity 78    
Maximum Humidity 100    
Minimum Humidity 54    
Precipitation  
Precipitation 0.00 in 0.13 in 1.56 in (1992)
Month to date precipitation 1.71  
Year to date precipitation 21.27  
Snow  
Snow 0.00 in 0.00 in - ()
Month to date snowfall 0.0  
Since 1 June snowfall 0.0  
Since 1 July snowfall 0.0  
Snow Depth -    
Sea Level Pressure  
Sea Level Pressure 30.19 in    
Wind  
Wind Speed 6 mph (East)    
Max Wind Speed 10 mph    
Max Gust Speed -    
Visibility 10 miles    
Events      
T = Trace of Precipitation, MM = Missing Value Source: NWS Daily Summary

Daily Weather History Graph

Daily Weather History Graph

Search for Another Location

Airport or City:

Trip Planner

Search our weather history database for the weather conditions in past years. The results will help you decide how hot, cold, wet, or windy it might be!

Date:

Astronomy

Jul. 13, 2013 Rise Set
Actual Time 6:03 AM EDT 8:57 PM EDT
Civil Twilight 5:30 AM EDT 9:30 PM EDT
Nautical Twilight 4:49 AM EDT 10:11 PM EDT
Astronomical Twilight 4:01 AM EDT 10:59 PM EDT
Moon 11:22 AM EDT (7/13) 11:33 PM EDT (7/13)
Length of Visible Light 15h 59m
Length of Day
14h 53m
Waxing Crescent, 25% of the Moon is Illuminated
Jul 13
Waxing Crescent
Jul 15
First Quarter
Jul 22
Full
Jul 29
Last Quarter
Aug 6
New

Hourly Weather History & Observations

Time (EDT) Temp. Heat Index Dew Point Humidity Pressure Visibility Wind Dir Wind Speed Gust Speed Precip Events Conditions
12:14 AM 66.2 °F - 62.8 °F 89% 30.15 in 10.0 mi ENE 6.9 mph - N/A   Clear
12:33 AM 65.3 °F - 62.1 °F 89% 30.15 in 10.0 mi East 6.9 mph - N/A   Clear
12:54 AM 64.8 °F - 61.7 °F 90% 30.16 in 10.0 mi East 6.9 mph - N/A   Scattered Clouds
1:14 AM 64.4 °F - 61.0 °F 89% 30.16 in 10.0 mi East 6.9 mph - N/A   Scattered Clouds
1:33 AM 63.5 °F - 61.9 °F 94% 30.15 in 10.0 mi East 5.8 mph - N/A   Clear
1:53 AM 62.8 °F - 62.6 °F 99% 30.15 in 10.0 mi ENE 4.6 mph - N/A   Clear
2:14 AM 62.6 °F - 62.8 °F 100% 30.15 in 10.0 mi ENE 4.6 mph - N/A   Clear
2:33 AM 62.2 °F - 62.4 °F 100% 30.14 in 10.0 mi East 4.6 mph - N/A   Clear
2:53 AM 61.9 °F - 62.1 °F 100% 30.14 in 10.0 mi East 3.5 mph - N/A   Clear
3:14 AM 62.1 °F - 61.9 °F 99% 30.13 in 10.0 mi ENE 4.6 mph - N/A   Clear
3:33 AM - - - N/A% 30.14 in 10.0 mi East 3.5 mph - N/A   Clear
3:53 AM 61.2 °F - 61.3 °F 100% 30.14 in 10.0 mi ENE 4.6 mph - N/A   Clear
4:14 AM 60.8 °F - 60.8 °F 100% 30.15 in 10.0 mi ENE 4.6 mph - N/A   Clear
4:33 AM 60.1 °F - 60.3 °F 100% 30.15 in 10.0 mi ENE 4.6 mph - N/A   Clear
4:54 AM 60.1 °F - 60.3 °F 100% 30.15 in 10.0 mi Calm Calm - N/A   Clear
5:14 AM 59.9 °F - 60.1 °F 100% 30.15 in 10.0 mi ENE 4.6 mph - N/A   Clear
5:33 AM 59.4 °F - 59.7 °F 100% 30.15 in 10.0 mi East 4.6 mph - N/A   Clear
5:53 AM - - - N/A% 30.16 in 10.0 mi NE 3.5 mph - N/A   Clear
6:14 AM 59.0 °F - 59.2 °F 100% 30.17 in 10.0 mi ENE 3.5 mph - N/A   Clear
6:33 AM - - - N/A% 30.17 in 10.0 mi ENE 4.6 mph - N/A   Clear
6:53 AM 60.6 °F - 60.8 °F 100% 30.18 in 10.0 mi ENE 4.6 mph - N/A   Clear
7:14 AM 62.4 °F - 62.6 °F 100% 30.19 in 10.0 mi ENE 5.8 mph - N/A   Clear
7:33 AM 63.5 °F - 62.6 °F 97% 30.19 in 10.0 mi NE 4.6 mph - N/A   Clear
7:53 AM 65.3 °F - 63.3 °F 93% 30.20 in 10.0 mi East 5.8 mph - N/A   Clear
8:14 AM 67.1 °F - 63.3 °F 88% 30.21 in 10.0 mi East 6.9 mph - N/A   Clear
8:33 AM 68.2 °F - 61.5 °F 79% 30.21 in 10.0 mi East 5.8 mph - N/A   Clear
8:53 AM 69.1 °F - 61.9 °F 78% 30.22 in 10.0 mi East 6.9 mph - N/A   Clear
9:14 AM 70.5 °F - 63.1 °F 77% 30.22 in 10.0 mi East 6.9 mph - N/A   Clear
9:33 AM 70.7 °F - 63.1 °F 77% 30.22 in 10.0 mi East 9.2 mph - N/A   Clear
9:53 AM 72.0 °F - 63.5 °F 75% 30.21 in 10.0 mi East 6.9 mph - N/A   Clear
10:14 AM 72.9 °F - 63.9 °F 73% 30.21 in 10.0 mi ESE 5.8 mph - N/A   Clear
10:33 AM 74.3 °F - 64.4 °F 71% 30.20 in 10.0 mi East 3.5 mph - N/A   Clear
10:53 AM 75.4 °F - 63.7 °F 67% 30.21 in 10.0 mi East 3.5 mph - N/A   Scattered Clouds
11:13 AM 75.7 °F - 64.9 °F 69% 30.21 in 10.0 mi East 6.9 mph - N/A   Scattered Clouds
11:33 AM 76.3 °F - 64.2 °F 66% 30.21 in 10.0 mi ENE 3.5 mph - N/A   Scattered Clouds
11:54 AM 77.5 °F - 64.4 °F 64% 30.21 in 10.0 mi East 6.9 mph - N/A   Mostly Cloudy
12:13 PM 77.5 °F - 63.9 °F 63% 30.21 in 10.0 mi East 4.6 mph - N/A   Scattered Clouds
12:33 PM 78.3 °F - 63.9 °F 61% 30.21 in 10.0 mi East 8.1 mph - N/A   Scattered Clouds
12:53 PM 77.9 °F - 63.3 °F 61% 30.21 in 10.0 mi East 6.9 mph - N/A   Mostly Cloudy
1:14 PM 78.1 °F - 63.7 °F 61% 30.21 in 10.0 mi ESE 6.9 mph - N/A   Scattered Clouds
1:33 PM 77.9 °F - 63.3 °F 61% 30.21 in 10.0 mi ESE 3.5 mph - N/A   Mostly Cloudy
1:54 PM 78.8 °F - 62.4 °F 57% 30.21 in 10.0 mi East 3.5 mph - N/A   Mostly Cloudy
2:13 PM 79.2 °F - 63.1 °F 58% 30.21 in 10.0 mi ESE 4.6 mph - N/A   Mostly Cloudy
2:33 PM 80.8 °F 82.2 °F 63.5 °F 56% 30.21 in 10.0 mi SE 4.6 mph - N/A   Scattered Clouds
2:54 PM 81.3 °F 82.7 °F 63.5 °F 55% 30.21 in 10.0 mi ENE 5.8 mph - N/A   Mostly Cloudy
3:14 PM 81.5 °F 82.9 °F 63.9 °F 55% 30.20 in 10.0 mi ENE 8.1 mph - N/A   Mostly Cloudy
3:33 PM 80.6 °F 82.3 °F 64.4 °F 58% 30.20 in 10.0 mi ENE 9.2 mph - N/A   Scattered Clouds
3:53 PM 82.6 °F 84.5 °F 65.3 °F 56% 30.20 in 10.0 mi East 10.4 mph - N/A   Scattered Clouds
4:14 PM 81.9 °F 83.2 °F 63.9 °F 54% 30.20 in 10.0 mi East 5.8 mph - N/A   Scattered Clouds
4:33 PM 82.0 °F 83.6 °F 64.2 °F 55% 30.20 in 10.0 mi East 5.8 mph - N/A   Clear
4:54 PM 83.1 °F 84.8 °F 64.8 °F 54% 30.19 in 10.0 mi ENE 8.1 mph - N/A   Scattered Clouds
5:14 PM 80.2 °F 81.9 °F 64.2 °F 58% 30.19 in 10.0 mi East 6.9 mph - N/A   Mostly Cloudy
5:33 PM 80.8 °F 82.4 °F 64.4 °F 57% 30.19 in 10.0 mi NNE 4.6 mph - N/A   Scattered Clouds
5:54 PM 81.7 °F 83.5 °F 64.9 °F 57% 30.20 in 10.0 mi ENE 8.1 mph - N/A   Scattered Clouds
6:14 PM 78.1 °F - 64.2 °F 62% 30.19 in 10.0 mi NE 6.9 mph - N/A   Scattered Clouds
6:33 PM 80.6 °F 82.3 °F 64.4 °F 58% 30.19 in 10.0 mi East 6.9 mph - N/A   Scattered Clouds
6:54 PM 79.7 °F - 65.1 °F 61% 30.20 in 10.0 mi East 8.1 mph - N/A   Clear
7:13 PM 79.5 °F - 63.7 °F 58% 30.21 in 10.0 mi East 8.1 mph - N/A   Clear
7:34 PM 78.8 °F - 64.8 °F 62% 30.21 in 10.0 mi East 8.1 mph - N/A   Clear
7:53 PM 77.9 °F - 65.1 °F 65% 30.21 in 10.0 mi East 6.9 mph - N/A   Clear
8:13 PM 76.6 °F - 65.7 °F 69% 30.21 in 10.0 mi East 6.9 mph - N/A   Clear
8:34 PM 74.3 °F - 65.7 °F 74% 30.21 in 10.0 mi ENE 5.8 mph - N/A   Clear
8:53 PM 72.5 °F - 66.2 °F 81% 30.22 in 10.0 mi ENE 4.6 mph - N/A   Clear
9:13 PM 72.0 °F - 66.7 °F 84% 30.22 in 10.0 mi ENE 3.5 mph - N/A   Clear
9:33 PM 70.9 °F - 66.9 °F 87% 30.22 in 10.0 mi NE 3.5 mph - N/A   Clear
9:54 PM 70.5 °F - 67.3 °F 89% 30.23 in 10.0 mi East 4.6 mph - N/A   Clear
10:14 PM 68.9 °F - 68.7 °F 99% 30.24 in 10.0 mi East 3.5 mph - N/A   Clear
10:33 PM 69.8 °F - 68.0 °F 94% 30.25 in 10.0 mi East 4.6 mph - N/A   Clear
10:53 PM 69.1 °F - 68.0 °F 96% 30.25 in 10.0 mi East 4.6 mph - N/A   Clear
11:13 PM 68.5 °F - 68.7 °F 100% 30.25 in 10.0 mi East 3.5 mph - N/A   Clear
11:34 PM 67.6 °F - 67.8 °F 100% 30.25 in 10.0 mi ENE 4.6 mph - N/A   Clear
11:53 PM 67.8 °F - 68.0 °F 100% 30.26 in 10.0 mi East 4.6 mph - N/A   Clear